When you browse on this site, cookies collect data to enhance your experience and personalize the content and advertising you see.
Visit our Privacy Policy to learn more. By continuing to use the site, you agree to this use of cookies and data.
  • In Spain
  • List of Countries
  • For 7 days
  • Water Temperature
  • Weather Map
  • Weather Widgets
  • user-avatar
    Login

    Hourly Weather Gevino

    Today, 22 August, Thursday

    Time Temperature Precipitation Wind Pressure Humidity
    00:00 +20°C° 0.1 mm 4 mps 747 mmHg 88%
    01:00 +19°C° 0.1 mm 3 mps 747 mmHg 92%
    02:00 +18°C° 0.1 mm 3 mps 747 mmHg 95%
    03:00 +18°C° 0 mm 4 mps 747 mmHg 95%
    04:00 +17°C° 0 mm 4 mps 748 mmHg 94%
    05:00 +16°C° 0 mm 5 mps 748 mmHg 93%
    06:00 +16°C° 0 mm 5 mps 749 mmHg 91%
    07:00 +16°C° 0 mm 5 mps 749 mmHg 89%
    08:00 +15°C° 0 mm 6 mps 750 mmHg 87%
    09:00 +16°C° 0 mm 5 mps 750 mmHg 83%
    10:00 +17°C° 0 mm 5 mps 750 mmHg 80%
    11:00 +19°C° 0 mm 5 mps 751 mmHg 76%
    12:00 +20°C° 0 mm 4 mps 751 mmHg 73%
    13:00 +21°C° 0 mm 4 mps 751 mmHg 70%
    14:00 +21°C° 0 mm 4 mps 752 mmHg 67%
    15:00 +21°C° 0 mm 4 mps 752 mmHg 69%
    16:00 +21°C° 0 mm 3 mps 752 mmHg 71%
    17:00 +21°C° 0 mm 3 mps 751 mmHg 73%
    18:00 +19°C° 0 mm 3 mps 752 mmHg 77%
    19:00 +17°C° 0 mm 2 mps 752 mmHg 80%
    20:00 +16°C° 0 mm 2 mps 752 mmHg 84%
    21:00 +15°C° 0 mm 2 mps 752 mmHg 84%
    22:00 +14°C° 0 mm 2 mps 752 mmHg 85%
    23:00 +13°C° 0 mm 2 mps 753 mmHg 86%

    Tomorrow, 23 August, Friday

    Time Temperature Precipitation Wind Pressure Humidity
    00:00 +13°C° 0 mm 2 mps 753 mmHg 86%
    01:00 +13°C° 0 mm 1 mps 753 mmHg 87%
    02:00 +12°C° 0 mm 1 mps 753 mmHg 88%
    03:00 +12°C° 0 mm 1 mps 753 mmHg 88%
    04:00 +12°C° 0 mm 1 mps 753 mmHg 89%
    05:00 +12°C° 0 mm 1 mps 753 mmHg 89%
    06:00 +13°C° 0 mm 1 mps 753 mmHg 85%
    07:00 +15°C° 0 mm 1 mps 754 mmHg 80%
    08:00 +18°C° 0 mm 1 mps 754 mmHg 76%
    09:00 +19°C° 0 mm 1 mps 754 mmHg 71%
    10:00 +20°C° 0 mm 1 mps 754 mmHg 66%
    11:00 +22°C° 0 mm 1 mps 754 mmHg 61%
    12:00 +22°C° 0 mm 1 mps 754 mmHg 60%
    13:00 +23°C° 0 mm 1 mps 754 mmHg 58%
    14:00 +23°C° 0 mm 2 mps 754 mmHg 56%
    15:00 +23°C° 0 mm 2 mps 753 mmHg 60%
    16:00 +22°C° 0 mm 1 mps 753 mmHg 65%
    17:00 +22°C° 0 mm 1 mps 753 mmHg 69%
    18:00 +20°C° 0 mm 1 mps 753 mmHg 73%
    19:00 +18°C° 0 mm 1 mps 753 mmHg 78%
    20:00 +15°C° 0 mm 1 mps 753 mmHg 82%
    21:00 +15°C° 0 mm 1 mps 753 mmHg 83%
    22:00 +14°C° 0 mm 1 mps 753 mmHg 85%
    23:00 +14°C° 0 mm 1 mps 753 mmHg 86%

    Day after tomorrow, 24 August, Saturday

    Time Temperature Precipitation Wind Pressure Humidity
    00:00 +13°C° 0 mm 1 mps 753 mmHg 87%
    01:00 +13°C° 0 mm 1 mps 753 mmHg 87%
    02:00 +12°C° 0 mm 0 mps 753 mmHg 87%
    03:00 +11°C° 0 mm 0 mps 753 mmHg 87%
    04:00 +11°C° 0 mm 0 mps 753 mmHg 88%
    05:00 +11°C° 0 mm 0 mps 753 mmHg 88%
    06:00 +13°C° 0 mm 0 mps 753 mmHg 83%
    07:00 +16°C° 0 mm 1 mps 753 mmHg 79%
    08:00 +19°C° 0 mm 1 mps 753 mmHg 74%
    09:00 +20°C° 0 mm 1 mps 753 mmHg 70%
    10:00 +21°C° 0 mm 1 mps 753 mmHg 66%
    11:00 +22°C° 0 mm 1 mps 753 mmHg 62%
    12:00 +23°C° 0 mm 1 mps 753 mmHg 61%
    13:00 +23°C° 0 mm 1 mps 752 mmHg 59%
    14:00 +24°C° 0 mm 2 mps 752 mmHg 57%
    15:00 +23°C° 0 mm 2 mps 752 mmHg 62%
    16:00 +23°C° 0 mm 1 mps 751 mmHg 66%
    17:00 +23°C° 0 mm 1 mps 751 mmHg 71%
    18:00 +21°C° 0 mm 1 mps 751 mmHg 76%
    19:00 +19°C° 0 mm 1 mps 751 mmHg 80%
    20:00 +16°C° 0 mm 1 mps 751 mmHg 85%
    21:00 +16°C° 0 mm 1 mps 751 mmHg 86%
    22:00 +15°C° 0 mm 1 mps 751 mmHg 87%
    23:00 +15°C° 0 mm 1 mps 751 mmHg 88%

    25 August, Sunday

    Time Temperature Precipitation Wind Pressure Humidity
    00:00 +14°C° 0 mm 1 mps 751 mmHg 89%
    01:00 +14°C° 0 mm 1 mps 751 mmHg 89%
    02:00 +14°C° 0 mm 1 mps 751 mmHg 90%
    03:00 +13°C° 0 mm 1 mps 750 mmHg 91%
    04:00 +13°C° 0 mm 1 mps 750 mmHg 91%
    05:00 +13°C° 0 mm 1 mps 750 mmHg 92%
    06:00 +15°C° 0 mm 1 mps 750 mmHg 87%
    07:00 +16°C° 0 mm 2 mps 750 mmHg 83%
    08:00 +18°C° 0 mm 2 mps 750 mmHg 78%
    09:00 +19°C° 0 mm 2 mps 750 mmHg 74%
    10:00 +21°C° 0 mm 2 mps 750 mmHg 70%
    11:00 +22°C° 0 mm 3 mps 751 mmHg 67%
    12:00 +22°C° 0.2 mm 3 mps 750 mmHg 67%
    13:00 +22°C° 0.2 mm 3 mps 750 mmHg 68%
    14:00 +24°C° 0.2 mm 3 mps 750 mmHg 69%
    15:00 +22°C° 0.3 mm 3 mps 750 mmHg 72%
    16:00 +23°C° 0.3 mm 2 mps 750 mmHg 76%
    17:00 +21°C° 0.3 mm 2 mps 750 mmHg 80%
    18:00 +20°C° 0 mm 2 mps 751 mmHg 83%
    19:00 +18°C° 0 mm 2 mps 751 mmHg 87%
    20:00 +16°C° 0 mm 2 mps 751 mmHg 90%
    21:00 +14°C° 0 mm 3 mps 751 mmHg 90%
    22:00 +13°C° 0 mm 3 mps 752 mmHg 91%
    23:00 +13°C° 0 mm 3 mps 752 mmHg 91%

    26 August, Monday

    Time Temperature Precipitation Wind Pressure Humidity
    00:00 +12°C° 0 mm 3 mps 752 mmHg 92%
    01:00 +11°C° 0 mm 3 mps 753 mmHg 93%
    02:00 +12°C° 0 mm 2 mps 753 mmHg 94%
    03:00 +12°C° 0 mm 2 mps 753 mmHg 94%
    04:00 +10°C° 0 mm 2 mps 753 mmHg 94%
    05:00 +10°C° 0 mm 2 mps 753 mmHg 95%
    06:00 +13°C° 0 mm 2 mps 753 mmHg 92%
    07:00 +14°C° 0 mm 2 mps 754 mmHg 88%
    08:00 +16°C° 0 mm 2 mps 754 mmHg 85%
    09:00 +17°C° 0 mm 2 mps 754 mmHg 78%
    10:00 +19°C° 0 mm 2 mps 754 mmHg 72%
    11:00 +20°C° 0 mm 2 mps 754 mmHg 65%
    12:00 +21°C° 0 mm 2 mps 754 mmHg 62%
    13:00 +21°C° 0 mm 2 mps 754 mmHg 60%
    14:00 +23°C° 0 mm 2 mps 754 mmHg 57%
    15:00 +21°C° 0 mm 2 mps 754 mmHg 61%
    16:00 +22°C° 0 mm 1 mps 753 mmHg 65%
    17:00 +22°C° 0 mm 1 mps 753 mmHg 69%
    18:00 +20°C° 0 mm 1 mps 753 mmHg 74%
    19:00 +18°C° 0 mm 1 mps 753 mmHg 79%
    20:00 +15°C° 0 mm 1 mps 753 mmHg 83%
    21:00 +15°C° 0 mm 1 mps 753 mmHg 85%
    22:00 +14°C° 0 mm 2 mps 753 mmHg 88%
    23:00 +14°C° 0 mm 2 mps 753 mmHg 90%

    27 August, Tuesday

    Time Temperature Precipitation Wind Pressure Humidity
    00:00 +13°C° 0 mm 2 mps 753 mmHg 91%
    01:00 +13°C° 0 mm 2 mps 753 mmHg 92%
    02:00 +13°C° 0 mm 2 mps 753 mmHg 92%
    03:00 +13°C° 0 mm 2 mps 753 mmHg 93%
    04:00 +12°C° 0 mm 2 mps 752 mmHg 93%
    05:00 +12°C° 0 mm 2 mps 752 mmHg 93%
    06:00 +14°C° 0 mm 2 mps 752 mmHg 88%
    07:00 +16°C° 0 mm 2 mps 752 mmHg 83%
    08:00 +17°C° 0 mm 2 mps 753 mmHg 78%
    09:00 +19°C° 0 mm 2 mps 752 mmHg 74%
    10:00 +20°C° 0 mm 2 mps 752 mmHg 70%
    11:00 +23°C° 0 mm 2 mps 752 mmHg 67%
    12:00 +23°C° 0 mm 2 mps 752 mmHg 65%
    13:00 +24°C° 0 mm 2 mps 752 mmHg 64%
    14:00 +24°C° 0 mm 2 mps 751 mmHg 63%
    15:00 +24°C° 0 mm 2 mps 751 mmHg 66%
    16:00 +24°C° 0 mm 2 mps 751 mmHg 70%
    17:00 +24°C° 0 mm 1 mps 750 mmHg 74%
    18:00 +22°C° 0 mm 1 mps 750 mmHg 78%
    19:00 +20°C° 0 mm 1 mps 750 mmHg 83%
    20:00 +18°C° 0 mm 1 mps 750 mmHg 87%
    21:00 +18°C° 0 mm 1 mps 750 mmHg 88%
    22:00 +18°C° 0 mm 1 mps 750 mmHg 89%
    23:00 +16°C° 0 mm 1 mps 750 mmHg 90%
    Show more